Location: Newark
(36.8292°N, 10.0894°E)
Time: 03:26:08
(UTC+00:00)

ISS - Visible Passes

Search period start: 12 December 2019 00:00
Search period end: 22 December 2019 00:00
Orbit: 411 x 421 km, 51.6° (Epoch: 12 December)

Date Brightness Start Highest point End Pass type
(mag) Time Alt. Az. Time Alt. Az. Time Alt. Az.
12 Dec -1.1 17:28:03 10° WNW 17:30:43 22° SW 17:33:21 10° S visible
13 Dec -2.2 16:39:08 10° WNW 16:42:18 41° SW 16:45:28 10° SSE visible
15 Dec -0.2 16:40:00 10° W 16:41:39 13° SW 16:43:18 10° SSW visible
21 Dec -1.7 05:16:54 10° SSW 05:19:50 29° SE 05:22:46 10° ENE visible
